Date String (YYYY-MM-DD hh:mm:ss) UTC,Instrument flags,Ambient pressure (hPa),Sample flow (lpm),Bypass flow (lpm),Sample temperature (°C),Ambient temperature (°C),ASC tube jacket temperature (°C),LED temperature (°C),Box temperature (°C),Sample RH (%),Span deviation,Mass concentration (μg/m³),Mass concentration (μg/m³),Mass concentration (μg/m³)
DateTimeUTC,F1_M11,P_M11,Q1_M11,Q2_M11,T1_M11,T2_M11,T3_M11,T4_M11,T5_M11,U1_M11,ZSPAN_M11,X0_M11,X2_M11,X1_M11
2023-04-12 03:00:00,,0828.7,4.99,0.00,30.5,29.0,00.0,38.8,32.0,06.4,0000.0,0006.16,0003.00,0001.82
2023-04-12 03:01:00,,0828.7,5.00,0.00,30.5,29.0,00.0,38.8,32.0,06.5,0000.0,0007.31,0003.05,0001.82
2023-04-12 03:02:00,,0828.7,5.00,0.00,30.5,29.0,00.0,38.8,32.0,06.5,0000.0,0007.29,0003.07,0001.85
2023-04-12 03:03:00,,0828.8,4.98,0.00,30.5,27.9,00.0,38.7,31.9,06.5,0000.0,0007.23,0003.06,0001.85
2023-04-12 03:04:00,,0828.7,5.02,0.00,30.4,26.2,00.0,38.6,31.6,06.4,0000.0,0006.92,0002.97,0001.84
2023-04-12 03:05:00,,0828.7,5.00,0.00,30.3,25.9,00.0,38.5,31.4,06.5,0000.0,0007.62,0002.95,0001.84
2023-04-12 03:06:00,,0828.7,5.00,0.00,30.2,26.1,00.0,38.5,31.3,06.6,0000.0,0007.79,0002.95,0001.84
2023-04-12 03:07:00,,0828.7,5.01,0.00,30.1,26.4,00.0,38.5,31.3,06.6,0000.0,0008.00,0002.96,0001.84
2023-04-12 03:08:00,,0828.8,4.99,0.00,30.0,26.7,00.0,38.5,31.3,06.6,0000.0,0008.55,0003.03,0001.85
2023-04-12 03:09:00,,0828.8,4.99,0.00,30.0,27.0,00.0,38.5,31.3,06.6,0000.0,0008.75,0003.08,0001.86
2023-04-12 03:10:00,,0828.8,5.01,0.00,30.0,27.3,00.0,38.5,31.3,06.7,0000.0,0008.66,0003.04,0001.85
2023-04-12 03:11:00,,0828.8,5.00,0.00,30.0,27.5,00.0,38.5,31.4,06.7,0000.0,0008.63,0003.10,0001.85
2023-04-12 03:12:00,,0828.8,5.00,0.00,30.0,27.7,00.0,38.5,31.4,06.6,0000.0,0007.95,0003.05,0001.85
2023-04-12 03:13:00,,0828.8,5.00,0.00,30.0,27.9,00.0,38.4,31.4,06.7,0000.0,0008.01,0003.09,0001.85
2023-04-12 03:14:00,,0828.7,5.00,0.00,30.0,28.0,00.0,38.4,31.4,06.7,0000.0,0008.05,0003.10,0001.86
2023-04-12 03:15:00,,0828.8,5.00,0.00,30.0,28.1,00.0,38.4,31.4,06.7,0000.0,0008.15,0003.13,0001.87
2023-04-12 03:16:00,,0828.8,5.00,0.00,30.0,28.1,00.0,38.4,31.4,06.7,0000.0,0007.85,0003.19,0001.88
2023-04-12 03:17:00,,0828.8,5.00,0.00,30.0,28.2,00.0,38.4,31.5,06.8,0000.0,0008.20,0003.20,0001.90
2023-04-12 03:18:00,,0828.8,5.00,0.00,30.0,28.3,00.0,38.4,31.5,06.8,0000.0,0007.93,0003.18,0001.90
2023-04-12 03:19:00,,0828.8,5.00,0.00,30.0,28.3,00.0,38.4,31.5,06.7,0000.0,0007.55,0003.15,0001.91
2023-04-12 03:20:00,,0828.8,5.00,0.00,30.0,28.3,00.0,38.4,31.5,06.7,0000.0,0007.57,0003.16,0001.91
2023-04-12 03:21:00,,0828.8,4.99,0.00,30.0,28.4,00.0,38.4,31.5,06.9,0000.0,0007.95,0003.18,0001.92
2023-04-12 03:22:00,,0828.8,5.00,0.00,30.0,28.4,00.0,38.4,31.5,06.8,0000.0,0007.87,0003.15,0001.91
2023-04-12 03:23:00,,0828.8,5.00,0.00,30.0,28.4,00.0,38.4,31.5,06.8,0000.0,0007.90,0003.14,0001.90
2023-04-12 03:24:00,,0828.8,5.00,0.00,30.0,28.4,00.0,38.4,31.5,06.8,0000.0,0007.87,0003.11,0001.91
2023-04-12 03:25:00,,0828.8,5.00,0.00,30.0,28.4,00.0,38.4,31.5,06.9,0000.0,0007.94,0003.15,0001.92
2023-04-12 03:26:00,,0828.8,5.00,0.00,30.0,28.4,00.0,38.4,31.4,06.8,0000.0,0008.01,0003.16,0001.93
2023-04-12 03:27:00,,0828.8,5.00,0.00,30.0,28.4,00.0,38.4,31.4,06.9,0000.0,0008.00,0003.14,0001.92
2023-04-12 03:28:00,,0828.8,5.00,0.00,30.0,28.4,00.0,38.4,31.4,06.8,0000.0,0007.65,0003.14,0001.92
2023-04-12 03:29:00,,0828.8,5.00,0.00,30.0,28.4,00.0,38.4,31.4,06.9,0000.0,0008.06,0003.16,0001.92
2023-04-12 03:30:00,,0828.8,5.00,0.00,30.0,28.4,00.0,38.4,31.4,06.9,0000.0,0007.94,0003.16,0001.93
2023-04-12 03:31:00,,0828.8,5.00,0.00,30.0,28.4,00.0,38.4,31.4,06.9,0000.0,0007.69,0003.12,0001.94
2023-04-12 03:32:00,,0828.9,5.00,0.00,30.0,28.4,00.0,38.4,31.4,06.8,0000.0,0007.06,0003.11,0001.94
2023-04-12 03:33:00,,0828.8,5.00,0.00,30.0,28.4,00.0,38.4,31.4,06.7,0000.0,0007.18,0003.13,0001.96
2023-04-12 03:34:00,,0828.9,5.01,0.00,30.0,28.4,00.0,38.4,31.4,06.7,0000.0,0007.13,0003.14,0001.97
2023-04-12 03:35:00,,0828.8,5.00,0.00,30.0,28.4,00.0,38.4,31.4,06.7,0000.0,0007.05,0003.14,0001.96
2023-04-12 03:36:00,,0828.8,5.00,0.00,29.9,28.4,00.0,38.4,31.3,06.8,0000.0,0007.00,0003.12,0001.97
2023-04-12 03:37:00,,0828.8,4.99,0.00,29.9,28.4,00.0,38.3,31.4,06.9,0000.0,0007.01,0003.13,0001.98
2023-04-12 03:38:00,,0828.8,5.00,0.00,29.9,28.4,00.0,38.3,31.4,06.9,0000.0,0006.86,0003.12,0002.00
2023-04-12 03:39:00,,0828.9,5.00,0.00,29.9,28.4,00.0,38.4,31.4,06.9,0000.0,0006.73,0003.13,0002.01
2023-04-12 03:40:00,,0828.9,4.99,0.00,29.9,28.4,00.0,38.3,31.4,06.8,0000.0,0006.34,0003.14,0002.01
2023-04-12 03:41:00,,0828.9,5.01,0.00,30.0,28.4,00.0,38.3,31.5,06.7,0000.0,0007.49,0003.12,0001.99
2023-04-12 03:42:00,,0828.8,5.00,0.00,30.0,28.5,00.0,38.4,31.5,06.7,0000.0,0007.94,0003.13,0001.98
2023-04-12 03:43:00,,0828.8,5.01,0.00,30.0,28.5,00.0,38.4,31.5,06.7,0000.0,0008.05,0003.14,0001.98
2023-04-12 03:44:00,,0828.9,5.00,0.00,30.0,28.5,00.0,38.4,31.6,06.7,0000.0,0008.07,0003.15,0001.98
2023-04-12 03:45:00,,0828.9,5.01,0.00,30.0,28.6,00.0,38.4,31.6,06.7,0000.0,0008.11,0003.15,0001.97
2023-04-12 03:46:00,,0829.0,5.00,0.00,30.1,28.6,00.0,38.4,31.6,06.7,0000.0,0008.82,0003.19,0001.98
2023-04-12 03:47:00,,0829.0,4.99,0.00,30.1,28.6,00.0,38.4,31.6,06.6,0000.0,0009.60,0003.20,0001.96
2023-04-12 03:48:00,,0828.9,5.00,0.00,30.1,28.6,00.0,38.4,31.6,06.6,0000.0,0009.42,0003.12,0001.93
2023-04-12 03:49:00,,0828.9,4.99,0.00,30.1,28.6,00.0,38.4,31.6,06.6,0000.0,0009.39,0003.11,0001.90
2023-04-12 03:50:00,,0828.9,4.99,0.00,30.1,28.6,00.0,38.4,31.6,06.6,0000.0,0009.25,0003.06,0001.90
2023-04-12 03:51:00,,0828.9,5.01,0.00,30.1,28.6,00.0,38.4,31.6,06.7,0000.0,0009.16,0003.07,0001.89
2023-04-12 03:52:00,,0829.0,5.00,0.00,30.1,28.6,00.0,38.4,31.6,07.0,0000.0,0008.57,0003.12,0001.90
2023-04-12 03:53:00,,0828.9,5.00,0.00,30.1,28.6,00.0,38.4,31.6,07.1,0000.0,0008.08,0003.11,0001.91
2023-04-12 03:54:00,,0828.9,5.01,0.00,30.1,28.6,00.0,38.4,31.6,07.1,0000.0,0008.16,0003.08,0001.91
2023-04-12 03:55:00,,0829.0,4.99,0.00,30.1,28.6,00.0,38.5,31.6,07.1,0000.0,0008.21,0003.09,0001.90
2023-04-12 03:56:00,,0829.0,5.00,0.00,30.1,28.6,00.0,38.5,31.7,07.1,0000.0,0008.23,0003.07,0001.91
2023-04-12 03:57:00,,0829.0,4.99,0.00,30.1,28.6,00.0,38.5,31.7,07.1,0000.0,0008.32,0003.04,0001.91
2023-04-12 03:58:00,,0828.9,5.00,0.00,30.1,28.7,00.0,38.5,31.7,07.1,0000.0,0007.41,0003.03,0001.94
2023-04-12 03:59:00,,0828.9,5.01,0.00,30.2,28.7,00.0,38.5,31.8,07.1,0000.0,0007.54,0003.11,0001.96
